Lid_Strength_Index
-1 0 1 0 -0 0 -0 0 0 0 0 0 0 0 0 0 0 0 -0 -1 -1 -1 -1 0 -0 0 5 10 8 3 -1 -0 4 6 8 8 10 11 13 12 12 12 12 11 10 11 11
-0 -1 -0 0 1 0 0 -0 -0 -0 0 0 0 0 0 0 0 0 -0 -1 -1 -1 -0 0 0 0 9 11 4 3 4 6 6 7 8 8 9 9 11 12 13 12 12 12 11 12 12
-0 0 -0 -0 0 1 1 -0 -0 -0 -0 -0 0 0 0 0 0 0 -0 -0 -1 -1 -0 0 1 3 9 8 3 3 5 6 6 7 8 8 8 10 11 13 11 12 14 13 13 13 13
0 -0 0 0 0 1 1 1 1 -0 -0 -0 -0 0 0 0 0 0 -0 -0 -1 -0 0 1 0 6 9 7 4 4 6 6 6 7 7 8 8 9 11 11 13 14 15 16 14 13 13
0 0 -0 0 0 0 0 0 0 1 1 1 1 0 0 0 0 0 -0 -0 1 0 0 0 5 8 9 5 7 7 7 7 8 8 8 7 9 12 12 14 16 17 18 18 15 14 14
0 1 1 0 0 0 1 0 -0 -0 0 1 1 1 1 1 1 1 0 0 1 2 2 3 5 10 9 10 9 8 8 8 9 10 10 10 12 14 15 16 18 18 19 18 17 15 15
0 1 1 1 1 0 1 1 1 0 0 0 1 1 1 1 1 1 2 5 7 8 8 9 10 10 10 9 8 10 8 9 10 12 14 13 15 16 15 15 16 17 18 17 17 15 16
0 1 1 1 1 1 0 1 1 0 0 1 1 1 0 0 0 -0 2 6 7 7 9 6 7 9 9 9 11 10 8 11 12 14 14 15 17 14 14 15 16 17 18 18 16 15 15
0 1 1 1 1 1 0 0 1 0 0 1 1 2 2 1 0 1 3 5 6 7 9 8 7 8 8 9 10 11 10 12 14 15 15 16 14 14 15 16 17 18 18 18 16 16 16
2 1 1 1 1 2 2 1 1 1 1 1 1 2 2 1 3 3 5 4 6 7 13 12 10 10 10 10 12 11 11 12 14 14 15 16 14 14 16 16 16 18 15 15 16 17 18
2 2 1 1 2 2 2 2 2 1 1 2 2 2 2 1 4 5 4 6 8 8 20 12 12 10 11 11 12 13 12 12 15 14 15 15 16 16 16 15 15 16 15 16 17 18 19
1 2 2 1 1 2 2 2 2 2 2 3 2 2 2 1 2 4 6 6 7 12 19 14 13 14 13 13 14 13 13 12 13 15 16 15 15 15 14 15 14 15 16 16 18 18 22
2 2 2 2 2 2 2 2 2 2 3 3 3 3 3 2 5 6 6 6 13 17 12 15 16 15 14 15 15 15 15 16 16 18 18 16 16 15 15 16 16 16 17 20 21 22 21
3 1 2 2 2 2 2 2 2 2 2 3 3 3 3 2 3 6 6 9 17 13 14 14 15 15 16 15 16 15 16 17 16 17 18 18 19 15 14 15 16 17 16 19 23 23 21
3 2 2 1 2 2 2 2 2 2 2 3 3 3 3 2 4 5 8 15 15 13 11 15 15 17 17 16 16 17 17 17 16 16 16 18 17 16 15 15 14 17 18 16 19 26 22
4 3 2 2 2 2 2 2 2 3 3 3 3 4 4 1 3 5 10 13 12 10 11 13 14 15 18 16 16 17 17 16 15 15 14 15 17 16 16 14 14 15 14 18 18 24 24
3 4 3 2 2 2 2 2 2 3 3 3 4 7 4 1 4 7 13 12 10 9 10 12 13 14 16 15 15 17 16 15 14 15 13 14 15 17 16 16 16 16 17 16 16 18 22
2 2 3 3 3 2 2 2 2 2 3 4 6 10 5 2 9 9 12 10 9 9 9 11 11 12 14 13 15 16 16 14 12 12 15 13 15 19 17 16 15 16 16 16 17 20 20
2 2 3 3 3 3 3 2 2 2 3 6 9 10 6 5 13 12 10 10 9 10 10 11 12 11 12 13 14 14 14 13 12 12 13 13 16 22 19 17 17 17 16 16 17 18 21
2 2 3 3 3 2 3 3 2 2 2 5 9 12 10 9 10 11 11 11 11 10 10 10 11 11 13 13 12 13 14 13 13 12 10 10 16 17 18 18 16 18 16 16 15 17 17
3 1 2 3 4 4 4 4 4 4 5 6 9 11 10 13 12 12 10 11 12 13 11 10 12 11 11 14 13 14 14 14 13 11 13 12 17 17 16 17 16 16 16 17 17 15 16
3 2 2 3 4 4 4 4 5 5 5 9 11 12 12 12 11 12 12 12 12 12 12 13 13 12 11 13 13 14 13 14 14 14 14 14 16 17 19 17 16 18 17 17 15 16 16
2 2 2 2 3 3 4 4 5 5 6 11 11 11 11 12 13 12 12 13 13 11 12 12 12 12 12 11 11 13 12 12 12 13 14 15 17 19 18 20 19 19 18 16 16 15 14
2 2 2 1 2 3 3 4 4 5 6 9 11 11 13 15 13 13 13 12 12 11 13 13 12 11 14 13 13 14 16 15 14 16 14 17 18 18 22 21 23 19 20 17 14 14 14
1 1 2 2 2 2 2 2 3 4 5 8 9 11 13 15 14 14 14 14 13 13 15 14 16 15 12 13 16 17 18 17 17 19 17 16 17 21 21 22 20 19 19 20 18 18 18
1 1 1 1 1 2 2 2 3 4 4 7 8 8 11 14 15 13 15 15 15 16 16 18 16 15 14 15 16 19 20 18 20 21 18 16 15 16 23 23 23 22 19 17 17 22 19
1 1 1 1 1 1 1 2 2 3 5 8 9 8 10 13 13 13 14 14 13 14 17 17 17 16 14 16 19 19 19 18 21 22 23 20 20 18 21 21 21 19 19 17 22 18 21
1 1 1 1 1 1 1 1 1 3 4 8 10 8 11 13 13 13 12 13 14 14 16 17 16 16 16 17 16 18 19 20 20 20 21 20 21 22 21 22 22 18 17 18 16 16 15
1 1 1 1 1 1 1 1 1 1 2 5 11 8 9 13 14 11 10 11 12 11 13 15 14 16 14 16 17 18 20 21 21 23 20 21 18 20 18 19 17 15 14 13 13 14 14